Overview Statistics Trail Chart Weather Telemetry Raw packets
 

This is the latest recevied weather packets stored in our database for station/object 1NW106. If no packets are shown the sender has not sent any weather packets the latest 10 day(s).

<< 26 27 28 29 30 31 32 >>
Time Temp. Humidity Pressure Rain* Wind** Luminosity Snow
1787995171 28.33° C 98% 1003.5 hPa 28.7 mm - - -
1787994571 28.33° C 93% 1004.9 hPa 28.7 mm - - -
1787993971 28.33° C 93% 1004.9 hPa 28.7 mm - - -
1787993371 28.33° C 92% 1005.3 hPa 28.7 mm - - -
1787992771 28.33° C 92% 1005.3 hPa 28.7 mm - - -
1787992171 27.78° C 95% 1004.7 hPa 28.7 mm - - -
1787991571 27.22° C 96% 1005 hPa 28.7 mm - - -
1787990972 27.78° C 99% 1004.1 hPa 28.7 mm - - -
1787990371 27.22° C 99% 1003 hPa 28.7 mm - - -
1787989771 26.67° C 99% 1002.4 hPa 28.7 mm - - -
1787989171 26.11° C 99% 1003.2 hPa 28.7 mm - - -
1787988571 27.78° C 96% 1005.5 hPa 27.69 mm - - -
1787987976 28.89° C 89% 1006.8 hPa 18.8 mm - - -
1787987371 29.44° C 86% 1007.3 hPa 18.8 mm - - -
1787986771 28.89° C 92% 1006.9 hPa 18.8 mm - - -
1787986178 28.33° C 99% 1006.1 hPa 18.8 mm - - -
1787985571 27.78° C 99% 1005.1 hPa 18.8 mm - - -
1787984971 26.67° C 99% 1004.8 hPa 18.8 mm - - -
1787984371 26.67° C 99% 1005.4 hPa 18.8 mm - - -
1787983771 27.22° C 99% 1006 hPa 18.8 mm - - -
1787983171 27.78° C 95% 1007.5 hPa 18.8 mm - - -
1787982571 27.78° C 91% 1008.4 hPa 16.51 mm - - -
1787981971 28.33° C 89% 1008.7 hPa 16.51 mm - - -
1787981371 27.78° C 90% 1008.8 hPa 16.51 mm - - -
1787980771 27.78° C 91% 1008.8 hPa 16.51 mm - - -

* Rain latest hour (hover to see other rain measurements)
** Current wind speed in m/s (hover to see current wind gust speed)